Location: Peebles
(55.6412°N, 3.1714°W)
Time: 04:49:59
(UTC+00:00)

Cosmos 1821 Rocket - Visible Passes

Search period start: 28 January 2022 00:00
Search period end: 07 February 2022 00:00
Orbit: 946 x 1003 km, 82.9° (Epoch: 27 January)

Date Brightness Start Highest point End Pass type
(mag) Time Alt. Az. Time Alt. Az. Time Alt. Az.
28 Jan 6.7 04:59:24 10° ESE 05:03:18 17° ENE 05:07:15 10° NE visible
28 Jan 4.4 06:41:20 10° S 06:47:36 73° E 06:53:59 10° NNE visible
28 Jan 4.1 17:28:51 10° NNW 17:35:19 87° E 17:41:42 10° S visible
28 Jan 6.4 19:15:08 10° NNW 19:19:56 23° W 19:24:43 10° SW visible
29 Jan 6.1 05:22:51 10° SE 05:27:59 27° E 05:33:11 10° NNE visible
29 Jan 4.0 07:06:29 10° SSW 07:12:48 75° WNW 07:19:14 10° N visible
29 Jan 4.7 17:54:08 10° NNW 18:00:27 62° W 18:06:42 10° S visible
29 Jan 7.0 19:41:18 10° NW 19:44:33 15° WNW 19:47:47 10° WSW visible
30 Jan 5.4 05:46:58 10° SSE 05:52:49 42° E 05:58:45 10° NNE visible
30 Jan 5.5 18:19:32 10° NNW 18:25:26 40° W 18:31:15 10° SSW visible
31 Jan 6.8 04:30:14 10° ESE 04:33:40 15° ENE 04:37:06 10° NE visible
31 Jan 4.5 06:11:35 10° S 06:17:49 65° E 06:24:09 10° NNE visible
31 Jan 6.3 18:45:09 10° NNW 18:50:15 26° W 18:55:18 10° SW visible
01 Feb 6.3 04:53:25 10° SE 04:58:18 24° E 05:03:13 10° NNE visible
01 Feb 4.0 06:36:37 10° SSW 06:42:57 84° W 06:49:25 10° N visible
01 Feb 4.5 17:24:17 10° NNW 17:30:40 70° W 17:36:57 10° S visible
01 Feb 6.9 19:11:08 10° NW 19:14:55 17° WNW 19:18:40 10° WSW visible
02 Feb 5.5 05:17:23 10° SSE 05:23:05 37° E 05:28:51 10° NNE visible
02 Feb 4.2 07:02:03 10° SSW 07:08:16 56° WNW 07:14:35 10° N visible
02 Feb 5.3 17:49:39 10° NNW 17:55:41 45° W 18:01:39 10° SSW visible
03 Feb 6.9 04:01:13 10° E 04:04:02 13° ENE 04:06:51 10° NE visible
03 Feb 4.7 05:41:52 10° S 05:48:02 57° E 05:54:18 10° NNE visible
03 Feb 6.2 18:15:12 10° NNW 18:20:33 29° W 18:25:51 10° SW visible
04 Feb 6.4 04:24:03 10° ESE 04:28:37 21° ENE 04:33:12 10° NNE visible
04 Feb 4.1 06:06:47 10° S 06:13:08 87° ESE 06:19:36 10° NNE visible
04 Feb 6.8 18:41:02 10° NW 18:45:15 19° WNW 18:49:27 10° WSW visible
05 Feb 5.7 04:47:50 10° SE 04:53:22 33° E 04:58:57 10° NNE visible
05 Feb 4.1 06:32:06 10° SSW 06:38:24 63° WNW 06:44:48 10° N visible
05 Feb 7.1 19:07:48 10° NW 19:09:48 12° WNW 19:11:47 10° W visible
06 Feb 7.0 03:32:27 10° E 03:34:24 11° ENE 03:36:22 10° NE visible
06 Feb 4.9 05:12:11 10° SSE 05:18:16 50° E 05:24:26 10° NNE visible
06 Feb 4.4 06:57:51 10° SW 07:03:50 41° WNW 07:09:54 10° N visible
06 Feb 6.0 17:45:16 10° NNW 17:50:50 33° W 17:56:20 10° SW visible
